TimeEDT,TemperatureF,Dew PointF,Humidity,Sea Level PressureIn,VisibilityMPH,Wind Direction,Wind SpeedMPH,Gust SpeedMPH,PrecipitationIn,Events,Conditions,WindDirDegrees,DateUTC
12:51 AM,51.1,46.0,83,29.97,10.0,Calm,Calm,-,N/A,,Partly Cloudy,0,2012-10-07 04:51:00
1:51 AM,50.0,42.1,74,29.99,10.0,WNW,5.8,-,N/A,,Partly Cloudy,300,2012-10-07 05:51:00
2:51 AM,48.2,41.0,76,29.99,10.0,WNW,4.6,-,N/A,,Clear,290,2012-10-07 06:51:00
3:51 AM,46.9,41.0,80,30.00,10.0,WNW,3.5,-,N/A,,Partly Cloudy,290,2012-10-07 07:51:00
4:51 AM,46.0,42.1,86,30.01,10.0,West,3.5,-,N/A,,Scattered Clouds,280,2012-10-07 08:51:00
5:51 AM,45.0,41.0,86,30.04,10.0,West,5.8,-,N/A,,Scattered Clouds,280,2012-10-07 09:51:00
6:51 AM,45.0,41.0,86,30.05,10.0,WNW,5.8,-,N/A,,Scattered Clouds,290,2012-10-07 10:51:00
7:51 AM,46.9,39.9,77,30.07,10.0,West,5.8,-,N/A,,Scattered Clouds,280,2012-10-07 11:51:00
8:51 AM,52.0,39.9,63,30.09,10.0,WNW,6.9,-,N/A,,Scattered Clouds,290,2012-10-07 12:51:00
9:51 AM,54.0,39.9,59,30.08,10.0,North,4.6,-,N/A,,Scattered Clouds,350,2012-10-07 13:51:00
10:51 AM,57.0,37.9,49,30.07,10.0,Variable,3.5,-,N/A,,Mostly Cloudy,0,2012-10-07 14:51:00
11:51 AM,57.0,37.9,49,30.07,10.0,North,4.6,-,N/A,,Mostly Cloudy,360,2012-10-07 15:51:00
12:51 PM,57.9,37.9,47,30.07,10.0,Calm,Calm,-,N/A,,Mostly Cloudy,0,2012-10-07 16:51:00
1:51 PM,57.0,41.0,55,30.06,10.0,Calm,Calm,-,N/A,,Overcast,0,2012-10-07 17:51:00
2:51 PM,54.0,44.1,69,30.06,10.0,WNW,4.6,-,0.01,Rain,Light Rain,300,2012-10-07 18:51:00
3:51 PM,52.0,46.9,83,30.05,5.0,WNW,3.5,-,0.05,Rain,Rain,290,2012-10-07 19:51:00
4:51 PM,51.1,46.9,86,30.04,10.0,West,4.6,-,0.05,Rain,Light Rain,270,2012-10-07 20:51:00
5:51 PM,51.1,46.9,86,30.05,10.0,West,3.5,-,0.01,,Overcast,260,2012-10-07 21:51:00
6:51 PM,51.1,46.0,83,30.04,10.0,Calm,Calm,-,N/A,,Overcast,0,2012-10-07 22:51:00
7:51 PM,51.1,48.9,92,30.03,10.0,Calm,Calm,-,N/A,,Overcast,0,2012-10-07 23:51:00
8:51 PM,51.1,46.9,86,30.03,10.0,West,3.5,-,N/A,,Overcast,260,2012-10-08 00:51:00
9:36 PM,50.0,46.4,87,30.05,6.0,West,6.9,-,N/A,Rain,Light Rain,260,2012-10-08 01:36:00
9:51 PM,48.9,46.0,90,30.06,6.0,West,5.8,-,0.02,Rain,Light Rain,280,2012-10-08 01:51:00
10:39 PM,48.2,44.6,87,30.07,10.0,West,4.6,-,0.02,Rain,Light Rain,270,2012-10-08 02:39:00
10:51 PM,48.0,44.1,86,30.07,7.0,West,3.5,-,0.03,Rain,Light Rain,260,2012-10-08 02:51:00
11:51 PM,48.0,45.0,89,30.08,10.0,WNW,8.1,-,0.00,Rain,Light Rain,300,2012-10-08 03:51:00